sat.trackr.live / text

‹ back to catalog

AMAZONAS 3

NORAD 39078 · 2013-006A

PAYLOAD ACTIVE UNKNOWN

§ Identity

Operator
Country
SPN
Launch date
2013-02-07
Launch site
FRGUI
Launch vehicle
Mass (kg)
RCS (m²)
318.74

Purposes: comms

External: N2YO · Heavens-Above · Gunter

§ Orbital elements

Epoch: 2026-05-25T03:44:42.071136Z

Period
1,436.11 min
Inclination
0.0405°
Eccentricity
0.0001166
Mean motion
1.00270664 rev/d
Perigee alt
35,782.0 km
Apogee alt
35,791.8 km
Semi-major
42,165.0 km
B*
0.0000e+0
RAAN
140.1963°
Arg perigee
297.5854°
Mean anomaly
160.1486°
Rev number
4,468

§ Raw data

AMAZONAS 31 39078U 13006A   26145.15604249 -.00000285  00000+0  00000+0 0  99902 39078   0.0405 140.1963 0001166 297.5854 160.1486  1.00270664 44680

JSON: /api/v1/satellites/39078 · /tle

For live sub-satellite position, see the globe view (requires WebGL).

§ Visibility from observer

Set your observer location to see the next 7 days of passes ≥ 10°. The values pass through the URL so the page stays shareable.

No JS? Fill the form by hand. The geolocation button needs JavaScript.